Regional Weather Roundup
Issued by NWS Green Bay, WI

Home | Current Version | Previous Version | Graphics & Text | Print | Product List | Glossary Off
Versions: 1 2 3 4 5 6 7 8 9 10 11 12 13 14 15 16 17 18 19 20 21 22 23 24 25 26 27 28 29 30 31 32 33 34 35 36 37 38 39 40 41 42 43 44 45 46 47 48 49 50

000
ASUS43 KGRB 201311
RWRGRB

NORTH-CENTRAL AND NORTHEAST WISCONSIN REGIONAL WEATHER ROUNDUP
NATIONAL WEATHER SERVICE GREEN BAY WI
800 AM CDT FRI APR 20 2018

WIZ005-009-010>012-018-019-201400-
NORTH CENTRAL WISCONSIN

CITY           SKY/WX    TMP DP  RH WIND       PRES   REMARKS
IRONWOOD       FAIR      31  18  58 E3        30.45R
MANITOWISH WTR FAIR      23  15  70 CALM      30.44S
ARBOR VITAE    FAIR      29  19  65 CALM      30.45R
EAGLE RIVER    FAIR      24  16  72 CALM      30.44R
LAND O LAKES   FAIR      26  13  56 CALM      30.46S
RHINELANDER    FAIR      27  14  58 CALM      30.46R
PHILLIPS       FAIR      24  16  73 CALM      30.46R
ANTIGO         FAIR      26  17  70 CALM      30.47R
TOMAHAWK       FAIR      24  14  66 CALM      30.47S
MERRILL          N/A     24  17  77 CALM      30.48R
$$

WIZ013-073-201400-
NORTHEAST WISCONSIN

CITY           SKY/WX    TMP DP  RH WIND       PRES   REMARKS
IRON MOUNTAIN  FAIR      35  13  40 CALM      30.44R
MARINETTE      FAIR      33  22  63 CALM      30.48S
OCONTO         FAIR      26  16  65 CALM      30.48R
$$

WIZ017-030-035>037-045-201400-
CENTRAL WISCONSIN

CITY           SKY/WX    TMP DP  RH WIND       PRES   REMARKS
MEDFORD        FAIR      28  20  70 CALM      30.47R
WAUSAU         FAIR      27  23  85 CALM      30.46R
MOSINEE        SUNNY     30  21  69 CALM      30.48R
MARSHFIELD     FAIR      30  17  58 NW6       30.47R
WISC RAPIDS    FAIR      28  21  75 SW3       30.50R
STEVENS POINT  FAIR      24  20  84 CALM      30.49R
WAUPACA        FAIR      31  22  68 CALM      30.49R
SHAWANO        FAIR      28  22  78 CALM      30.48R
CLINTONVILLE   FAIR      26  19  72 CALM      30.48R
WAUTOMA        FAIR      29  21  72 CALM      30.49R
$$

WIZ038-039-048-051-201400-
FOX VALLEY

CITY           SKY/WX    TMP DP  RH WIND       PRES   REMARKS
NWS GREEN BAY  FAIR      27  23  85 CALM      30.49R
APPLETON       MOSUNNY   32  19  59 W6        30.46R
OSHKOSH        FAIR      33  22  63 CALM      30.48R
FOND DU LAC    FAIR      29  20  69 S3        30.49R
$$

WIZ022-050-052-201400-
EAST CENTRAL WISCONSIN

CITY           SKY/WX    TMP DP  RH WIND       PRES   REMARKS
EPHRAIM        FAIR      39  12  33 W3        30.46R
WASHINGTON ISL FAIR      36  21  55 SW3       30.47R
STURGEON BAY   FAIR      35  19  52 CALM      30.48S
MANITOWOC      FAIR      32  23  69 CALM      30.50R
SHEBOYGAN      FAIR      34  28  79 SW3       30.49R
$$

LMZ563-521-522-541>543-201400-
LAKESHORE

STATION/POSITION TIME  TEMP    WIND        PRES    VSBY  WAVE
                       AIR SEA DIR/SP/G                  HT/PER
                 (UTC) (F)     (DEG/KT/KT) (MB)    (MI)  (FT/S)
SHEBOYGAN LKSHOR 1300   39     280/  2/  3 1032.9R
KEWAUNEE LKSHORE 1248   32     300/  6/  7 1031.2R
NORTHPORT PIER   1240   38                 1031.5S
SISTER BAY LKSHO 1212   42        CALM       N/A
MENOMINEE LKSHOR 1248   36     250/  2/  2 1031.4R
$$




USA.gov is the U.S. government's official web portal to all federal, state and local government web resources and services.